Theta_e
304 307 313 313 311 304 306 307 304 305 305 306 308 309 311 310 309 309 309 309 310 309 308 310 312 313 312 312 311 312 311 311 313 314 312 313 314 314 311 308 311 308 305 309
303 306 308 311 306 304 306 307 306 305 306 308 308 310 312 311 310 310 310 310 310 310 311 311 312 312 312 313 311 312 311 310 306 310 310 312 315 314 313 312 310 312 309 309
305 306 308 305 307 305 306 306 306 306 306 306 308 310 312 312 311 311 311 311 310 310 310 309 312 313 313 312 310 311 310 309 308 309 310 312 313 314 313 311 310 312 312 310
304 308 308 307 303 306 308 306 303 306 306 306 305 308 309 311 311 310 310 310 311 311 310 310 311 312 313 311 311 311 309 308 306 310 311 312 312 313 312 311 311 313 312 311
301 310 309 307 304 308 307 307 305 305 303 306 305 309 309 310 311 309 310 310 310 309 310 309 310 311 311 311 310 310 307 306 307 305 308 308 311 311 311 312 311 312 311 311
302 303 307 307 306 307 307 308 307 307 305 303 306 309 310 311 309 309 309 310 309 309 308 308 309 310 310 310 310 309 308 305 303 308 305 306 308 308 310 311 310 311 313 309
306 305 307 304 305 306 307 308 308 307 305 305 307 309 310 310 310 309 307 310 308 310 308 309 310 309 308 308 306 309 308 305 301 300 303 305 305 305 307 308 306 305 305 303
305 307 306 304 304 307 305 307 308 308 303 305 308 309 307 307 307 306 306 306 307 309 309 306 307 306 308 308 305 306 307 306 304 304 303 305 307 307 307 308 304 300 301 300
302 304 304 303 302 306 304 306 306 307 304 300 302 308 308 305 304 304 304 307 308 309 306 307 308 308 307 309 309 306 304 304 304 305 307 308 306 305 305 306 307 300 301 300
306 304 304 302 302 306 306 302 305 306 300 298 302 305 306 307 304 302 304 307 308 309 305 307 308 306 306 308 308 307 306 305 305 305 304 305 303 303 305 306 304 300 301 300
306 305 305 302 301 301 305 303 304 304 300 297 300 303 305 305 305 303 304 306 307 306 306 307 305 305 305 306 305 305 306 304 305 305 308 309 302 303 307 301 300 300 300 300
304 305 304 302 299 300 301 300 303 304 304 297 298 300 302 303 304 304 303 304 305 305 304 304 302 305 302 303 307 304 307 304 305 304 305 300 301 302 301 301 301 300 300 299
304 302 302 300 300 300 300 300 303 304 299 297 298 298 298 300 303 304 305 304 305 305 305 303 302 306 301 304 303 304 303 302 302 303 300 299 300 300 300 300 299 298 298 297
303 301 300 299 300 300 300 300 302 302 300 296 296 297 298 298 301 303 304 305 305 305 304 303 300 303 301 301 301 302 302 301 299 299 297 299 299 299 299 298 297 296 296 296
303 301 299 299 298 299 299 301 302 302 301 295 296 297 297 297 299 302 303 303 304 303 302 297 299 298 297 295 296 297 299 298 299 299 299 299 299 299 298 296 295 294 294 293
301 300 299 299 298 298 300 300 301 301 302 299 296 296 297 297 298 300 301 301 302 301 299 297 298 298 298 295 296 297 299 300 301 300 300 300 300 297 297 295 294 293 293 293
300 299 299 298 298 299 300 300 301 301 301 300 294 294 297 297 297 297 298 298 299 299 298 297 297 297 298 297 298 297 299 300 300 300 298 298 297 296 295 293 293 293 293 292
300 299 298 297 298 299 300 300 300 299 298 297 289 294 296 297 297 298 298 298 298 298 298 297 296 297 297 296 297 299 300 300 298 297 295 295 294 294 293 292 292 292 292 292
299 298 297 298 299 299 299 299 299 296 296 295 290 291 293 297 297 297 298 299 296 297 296 297 297 296 295 297 298 299 299 299 297 295 293 293 292 292 291 291 291 291 291 291
297 297 298 299 299 299 296 295 296 295 295 297 291 294 293 296 298 297 297 297 295 289 296 297 296 296 298 299 299 299 298 295 293 293 292 292 292 291 291 290 290 291 291 290
298 298 298 299 297 297 297 296 295 295 292 295 295 294 294 296 292 297 297 297 297 297 293 295 294 296 296 298 298 297 294 293 293 292 292 291 291 290 290 290 290 290 290 289
299 299 298 298 297 296 293 289 293 294 292 294 294 295 297 297 297 295 296 292 296 293 297 298 297 294 297 296 295 294 293 292 292 291 291 291 290 290 290 290 290 290 289 289
299 300 300 297 294 293 290 294 294 295 293 294 295 291 295 295 296 296 292 291 291 296 297 293 293 296 297 296 294 292 292 292 291 291 290 290 290 290 290 290 289 289 289 290
297 297 294 292 291 292 293 295 291 293 295 295 295 294 295 295 294 293 291 296 295 292 288 292 288 297 296 294 292 293 293 292 291 290 290 290 290 290 290 290 290 289 289 288
297 295 290 288 292 293 294 295 294 294 295 296 294 293 295 290 291 293 294 296 288 290 291 289 298 298 295 293 292 293 293 291 290 290 290 290 289 289 288 288 288 287 287 287
295 293 291 292 292 292 294 294 294 295 295 295 295 288 288 291 290 289 287 289 289 290 286 298 298 295 294 293 293 293 291 290 290 289 289 289 288 288 287 287 287 287 287 287
294 292 293 294 294 293 294 295 295 295 295 288 289 287 289 289 287 290 288 288 289 294 298 298 296 295 293 293 293 291 290 289 289 289 289 289 288 287 287 287 287 287 287 286
Wind_Speed
30 27 35 41 31 36 31 18 3 19 16 4 5 3 3 6 5 3 2 3 2 3 3 3 3 3 1 1 2 3 2 4 4 2 4 3 1 1 3 4 1 2 3 4
32 16 36 38 37 44 39 19 6 13 15 3 3 2 4 4 4 4 5 4 3 1 3 5 6 2 4 3 4 2 1 3 3 6 5 2 2 2 3 4 3 1 3 3
26 21 33 36 38 38 32 11 4 6 9 7 3 4 3 4 6 4 4 3 1 0 4 5 4 3 2 4 3 3 3 3 4 5 5 3 3 4 3 4 3 3 3 4
25 22 40 36 43 44 29 8 5 8 7 6 4 4 6 4 4 1 4 1 2 2 3 4 3 3 3 6 5 3 3 3 3 3 4 2 3 4 6 6 4 4 3 4
22 13 30 40 46 36 24 10 6 9 9 6 6 4 7 7 3 4 3 2 1 4 4 3 6 5 2 2 3 2 3 1 3 4 6 6 2 2 3 2 3 2 4 3
24 16 44 38 50 38 20 10 9 9 9 5 5 5 7 7 8 3 1 9 5 6 2 4 9 8 6 5 5 2 3 3 3 1 4 4 4 3 1 0 3 1 5 3
20 18 41 41 49 40 15 14 13 5 3 4 5 6 5 9 4 6 3 9 6 5 9 16 16 16 13 11 6 4 4 3 2 1 4 3 4 4 2 10 6 7 7 5
18 25 38 39 48 35 12 16 6 4 3 3 3 9 7 13 11 4 5 4 8 15 9 5 4 4 4 4 5 5 4 4 3 3 2 4 2 2 1 1 1 4 4 5
16 10 29 37 44 36 12 15 6 3 10 2 4 3 15 5 3 3 3 9 12 5 3 2 3 4 3 2 1 3 5 5 4 2 3 6 4 2 3 2 3 1 6 2
14 17 31 32 37 39 21 7 7 4 9 4 5 2 5 8 5 4 3 4 3 1 2 2 2 1 3 4 6 4 2 1 4 2 2 4 4 3 2 4 4 6 2 4
3 22 30 29 30 28 34 15 10 5 8 11 6 7 7 8 6 5 8 5 1 2 2 2 3 3 4 3 4 5 5 5 3 1 1 6 2 2 5 4 6 2 4 7
11 25 26 27 31 27 26 16 12 8 9 12 17 16 12 10 8 10 7 2 3 3 3 1 2 2 1 3 3 1 2 5 4 6 3 1 2 6 9 7 3 3 7 8
21 24 30 25 24 33 29 16 15 14 19 12 9 11 11 8 9 9 4 4 4 3 3 5 2 2 2 3 4 2 2 1 3 3 2 4 11 9 5 2 2 2 5 7
24 23 27 21 23 28 28 19 18 12 12 6 7 6 8 7 6 5 5 8 8 7 4 4 2 2 1 2 1 2 4 5 4 2 4 9 4 3 3 2 1 2 4 6
25 28 22 23 22 24 23 22 17 15 2 7 7 11 9 8 6 6 7 9 10 4 3 3 1 1 2 2 2 2 4 4 4 4 15 4 8 6 5 0 2 4 6 8
27 28 23 25 26 22 25 10 11 12 12 9 3 5 6 8 8 8 8 9 6 5 4 3 2 1 1 2 2 2 2 4 4 5 16 5 7 6 4 3 4 6 8 10
32 29 25 27 25 27 11 6 16 17 10 7 5 2 3 6 6 7 8 7 6 4 4 2 2 2 2 2 2 2 8 8 10 8 8 7 8 5 4 5 6 7 9 11
28 26 29 27 23 21 5 11 26 17 5 5 4 2 3 2 3 3 3 3 3 5 3 2 1 2 1 2 3 11 12 9 7 6 4 5 4 2 4 6 8 11 13 14
28 26 32 18 13 5 12 22 16 6 2 7 4 5 4 5 4 4 3 2 3 2 2 1 1 0 2 3 10 14 12 6 8 5 4 3 1 4 7 10 12 14 16 16
37 34 11 7 9 22 21 11 6 3 3 4 4 5 3 6 4 3 3 3 1 1 1 1 0 3 3 2 10 14 10 7 8 7 4 3 6 10 12 14 15 16 18 19
29 9 4 21 28 13 4 4 2 2 4 3 5 5 6 5 3 2 2 2 1 1 3 2 2 2 4 10 12 10 8 7 4 1 4 7 12 15 17 18 18 19 19 20
14 8 23 25 6 3 4 0 1 3 4 5 7 7 7 7 4 5 3 3 1 2 2 2 2 3 12 13 11 9 7 4 3 6 9 11 13 14 16 19 19 18 19 19
28 9 8 5 2 3 6 6 2 3 8 10 10 3 6 6 4 5 3 3 2 5 2 3 4 9 17 14 12 10 6 5 8 11 12 13 13 13 16 17 16 18 22 24
6 8 4 4 2 4 3 3 4 6 17 27 21 9 5 5 3 3 4 2 3 2 1 5 3 17 18 15 13 10 7 9 13 13 13 12 13 14 14 16 20 24 28 30
2 3 4 3 4 4 8 14 11 16 34 21 16 10 6 2 4 1 3 3 2 5 4 3 5 15 18 16 13 9 10 13 13 11 11 11 14 18 22 22 22 22 24 25
2 4 5 6 5 2 7 16 22 33 24 14 8 4 4 2 4 3 4 6 5 4 3 6 11 16 17 14 11 11 13 11 10 9 11 15 19 22 23 22 21 22 23 27
3 3 9 4 7 9 12 24 26 25 7 3 5 5 4 4 3 1 3 5 3 5 8 10 12 12 12 11 12 13 11 10 10 11 14 18 20 22 22 23 23 25 26 26
Wind_Direction
322 347 207 203 174 152 156 143 120 165 168 144 222 174 184 139 163 156 158 175 187 177 173 95 102 132 284 294 11 47 33 101 76 76 294 261 254 92 101 107 252 52 129 292
319 303 196 184 164 163 156 132 115 166 177 187 213 187 151 147 136 181 179 211 225 183 142 104 124 112 5 87 48 83 18 39 66 358 349 4 238 195 105 93 52 310 121 245
302 257 198 182 171 164 156 146 132 156 199 241 243 136 180 139 170 164 185 171 136 124 46 29 111 122 28 66 80 85 104 104 150 178 206 132 182 175 109 111 110 180 218 117
319 240 208 204 175 161 160 161 167 172 182 217 213 157 167 134 149 202 158 124 197 103 112 73 92 77 84 36 7 41 79 108 85 54 44 96 196 173 168 188 160 158 231 124
330 218 220 197 174 167 169 150 149 165 162 176 158 207 191 158 140 134 226 161 50 128 150 177 159 131 139 158 29 63 26 91 85 6 26 45 33 17 217 215 159 233 169 120
296 286 197 184 168 178 179 190 154 151 154 139 152 191 149 167 126 44 63 150 101 80 62 92 124 109 95 153 135 99 73 110 64 338 348 10 358 317 245 65 63 273 216 134
307 238 193 178 176 183 177 166 156 122 155 139 177 155 126 143 141 131 54 111 103 143 110 100 85 78 74 77 48 96 113 92 87 151 18 23 262 331 62 106 48 33 64 68
349 191 190 179 182 180 171 163 149 119 104 112 95 125 111 97 90 77 82 68 121 141 116 73 62 359 27 6 17 44 98 104 80 118 162 274 240 25 118 169 69 358 85 29
302 196 193 187 186 186 161 169 147 113 119 356 121 111 133 126 106 43 55 112 135 129 93 100 139 186 167 194 13 28 76 86 115 180 165 210 197 195 344 129 263 146 121 92
260 227 196 190 190 196 194 175 191 135 103 47 128 141 137 126 103 103 121 135 128 115 89 110 148 233 145 157 167 162 99 61 150 182 210 283 210 260 323 106 247 151 57 8
255 189 188 184 188 197 203 207 197 171 104 60 111 128 126 129 139 137 157 100 329 63 94 131 196 131 223 116 168 173 166 153 188 133 168 269 104 81 162 158 112 107 326 313
195 188 193 181 185 189 181 183 182 161 115 112 97 97 106 120 123 127 142 124 125 151 103 100 108 121 89 146 199 62 187 184 181 179 213 55 108 142 134 162 170 264 290 296
191 187 181 180 182 184 184 177 162 150 108 89 111 79 91 101 125 138 134 148 150 144 124 140 136 136 127 159 234 132 309 151 126 126 131 119 126 128 134 152 244 275 300 305
201 188 170 171 181 186 191 186 173 154 117 100 46 84 93 92 109 129 127 142 145 130 103 84 104 133 174 202 221 163 202 136 134 80 65 125 162 160 160 129 324 323 318 323
194 185 168 175 170 172 175 178 172 169 152 129 128 93 78 95 104 112 121 135 139 109 72 59 104 119 103 23 42 273 194 176 164 221 173 141 168 174 166 332 297 311 323 326
178 164 167 166 153 160 160 149 187 177 133 112 93 90 86 105 119 130 127 125 106 93 89 97 98 95 77 111 211 304 141 136 155 149 163 128 149 169 193 289 300 316 313 319
161 162 158 153 153 154 178 187 164 168 149 115 111 71 132 114 109 95 87 90 84 84 95 84 125 112 96 133 213 168 138 123 112 128 144 139 165 180 251 293 308 304 308 312
149 156 156 144 158 180 235 159 152 163 156 108 105 85 118 124 80 83 66 80 80 56 94 95 106 130 78 245 243 152 147 140 139 143 146 151 168 214 277 293 304 305 312 316
151 146 136 129 149 153 153 148 150 169 162 115 103 137 176 140 88 91 85 70 65 52 81 83 91 326 230 226 169 169 170 185 171 157 156 159 242 296 310 313 307 302 308 311
142 137 146 141 169 146 138 147 176 172 83 79 90 122 109 131 137 90 94 22 106 57 294 59 142 258 274 287 201 185 181 178 165 166 184 278 308 313 316 315 314 311 311 313
147 167 132 141 151 150 165 139 144 146 50 75 107 126 126 126 111 120 90 120 319 169 262 139 260 271 198 155 156 171 173 172 175 265 309 310 309 313 314 316 317 312 307 305
144 140 128 135 176 169 101 260 335 64 169 130 120 128 114 109 109 99 157 119 83 199 150 221 250 244 178 174 179 178 183 203 259 297 300 299 303 308 309 311 312 309 306 304
132 121 168 157 138 46 148 181 231 138 171 152 147 115 109 111 103 92 90 87 179 127 175 234 227 187 179 184 186 188 209 256 292 302 303 303 307 308 309 312 316 313 309 310
201 155 131 165 226 244 181 173 151 135 146 138 126 101 104 111 84 133 89 114 115 75 14 237 243 197 190 190 194 207 240 282 302 307 309 313 315 315 312 313 313 311 309 311
194 139 175 175 123 89 115 114 118 127 140 132 110 83 95 56 93 92 111 137 243 204 230 231 215 187 189 195 207 233 273 294 303 307 311 316 315 312 312 314 314 316 315 314
88 79 95 139 98 121 113 125 128 140 138 111 86 99 71 64 127 98 204 131 214 240 219 204 181 184 192 206 229 266 287 290 296 302 311 314 318 316 315 315 319 320 320 319
79 55 117 159 104 134 134 146 146 148 136 112 111 82 174 99 61 214 187 198 220 216 188 181 183 191 205 231 263 280 277 284 295 307 314 316 319 313 307 311 321 320 321 322